Printer-friendly version

IAU Minor Planet Center

Minor Planet Center

MPEC 2008-D03 : 2008 CC175

The following Minor Planet Electronic Circular may be linked-to from your own Web pages, but must not otherwise be redistributed electronically.


Read MPEC 2008-D02 Read MPEC 2008-D04


M.P.E.C. 2008-D03                                Issued 2008 Feb. 16, 18:30 UT

     The Minor Planet Electronic Circulars contain information on unusual
         minor planets and routine data on comets.  They are published
   on behalf of Commission 20 of the International Astronomical Union by the
          Minor Planet Center, Smithsonian Astrophysical Observatory,
                          Cambridge, MA 02138, U.S.A.

             Prepared using the Tamkin Foundation Computer Network

                              MPC@CFA.HARVARD.EDU
          URL http://www.cfa.harvard.edu/iau/mpc.html  ISSN 1523-6714

                                  2008 CC175

Observations:
     K08CH5C  C2008 02 14.36269 13 26 30.73 +16 20 08.4          20.6 V ED003703
     K08CH5C  C2008 02 14.36915 13 26 32.46 +16 20 29.6          19.9 V ED003703
     K08CH5C  C2008 02 14.37561 13 26 34.22 +16 20 53.5          20.4 V ED003703
     K08CH5C  C2008 02 14.38212 13 26 35.95 +16 21 15.1          19.8 V ED003703
     K08CH5C* C2008 02 14.42602 13 26 47.58 +16 23 46.6          20.2 V ED003703
     K08CH5C  C2008 02 14.43160 13 26 48.98 +16 24 06.3          20.1 V ED003703
     K08CH5C  C2008 02 14.43716 13 26 50.46 +16 24 24.8          20.2 V ED003703
     K08CH5C  C2008 02 14.44276 13 26 52.04 +16 24 44.0          20.1 V ED003703
     K08CH5C  C2008 02 16.06404 13 34 49.64 +18 02 42.1                 ED003J95
     K08CH5C  C2008 02 16.07936 13 34 54.35 +18 03 42.4                 ED003J95
     K08CH5C  C2008 02 16.08713 13 34 56.62 +18 04 11.7                 ED003J95
     K08CH5C  C2008 02 16.09788 13 34 59.92 +18 04 52.6          19.8 R ED003J95

Observer details:
703 Catalina Sky Survey.  Observer E. Beshore.  Measurers E. C. Beshore,
    A. Boattini, G. J. Garradd, A. R. Gibbs, A. D. Grauer, R. E. Hill,
    R. A. Kowalski, S. M. Larson, R. H. McNaught.  0.68-m Schmidt + CCD.
J95 Great Shefford.  Observer P. Birtwhistle.  0.40-m f/6.0 Schmidt-Cassegrain
    + CCD.

Orbital elements:
2008 CC175                                               Earth MOID = 0.1200 AU
Epoch 2007 Oct. 27.0 TT = JDT 2454400.5                 MPC
M 158.97489              (2000.0)            P               Q
n   1.04380364     Peri.  165.51206     +0.37582216     +0.91496392
a   0.9624766      Node   126.35406     -0.86735030     +0.40314356
e   0.5067008      Incl.   10.51434     -0.32628386     -0.01778504
P   0.94           H   21.3           G   0.15           U   9
Residuals in seconds of arc
080214 703  0.2-  0.1+    080214 703  0.3+  0.1+    080216 J95  0.4-  0.2-
080214 703  0.1-  1.0-    080214 703  0.8-  0.6+    080216 J95  0.7+  0.8+
080214 703  0.5+  0.6+    080214 703  0.8-  0.1-    080216 J95  0.5-  0.0
080214 703  0.5+  0.2-    080214 703  0.6+  0.1-    080216 J95  0.2+  0.7-

Ephemeris:
2008 CC175               a,e,i = 0.96, 0.51, 11                  q = 0.4748
Date    TT    R. A. (2000) Decl.     Delta      r     Elong.  Phase     V
2008 02 14    13 24.83   +15 59.9    0.244    1.153   127.5    42.8    20.2
2008 02 16    13 34.48   +17 58.9    0.227    1.139   127.0    43.8    20.0
2008 02 18    13 45.61   +20 15.7    0.210    1.125   126.1    45.2    19.9
2008 02 20    13 58.67   +22 52.3    0.194    1.110   124.6    47.1    19.7
2008 02 22    14 14.24   +25 50.8    0.179    1.095   122.4    49.7    19.6
2008 02 24    14 33.08   +29 11.6    0.165    1.080   119.3    53.0    19.5
2008 02 26    14 56.22   +32 52.2    0.153    1.064   115.3    57.2    19.4
2008 02 28    15 24.88   +36 44.8    0.143    1.049   110.2    62.4    19.4
2008 03 01    16 00.29   +40 33.2    0.136    1.032   104.1    68.6    19.4
2008 03 03    16 43.13   +43 52.0    0.131    1.016    97.0    75.6    19.6
2008 03 05    17 32.47   +46 10.0    0.129    0.999    89.4    83.2    19.8
2008 03 07    18 24.94   +47 03.4    0.130    0.982    81.5    91.0    20.1
2008 03 09    19 15.65   +46 28.5    0.134    0.964    73.8    98.5    20.4
2008 03 11    20 00.58   +44 43.2    0.141    0.946    66.5   105.6    20.8
2008 03 13    20 38.10   +42 14.7    0.151    0.928    60.0   111.9    21.3
2008 03 15    21 08.51   +39 27.2    0.162    0.909    54.2   117.5    21.8

Timothy B. Spahr             (C) Copyright 2008 MPC           M.P.E.C. 2008-D03

Read MPEC 2008-D02 Read MPEC 2008-D04


Our Web policy. Index to the CBAT/MPC/ICQ pages.


Valid HTML 4.01!